User: anonymous   Login
Location: Unspecified
(0.0000°N, 0.0000°E)
Time: 00:15:27
(UTC+00:00)
Language:

NADEZHDA 7 - Orbit

View from above orbital plane
View from above orbital plane
View from above satellite
View from above satellite

Ground track
Ground track

The orbit data is extracted from the following two-line orbital elements,

1 27534U 02046A   17326.58328333 +.00000017 +00000-0 +14863-5 0  9992
2 27534 082.9330 122.1007 0036791 027.9426 040.4977 13.72692291759326
Epoch (UTC): 22 November 2017 13:59:55
Eccentricity: 0.0036791
inclination: 82.9330°
perigee height: 963 km
apogee height: 1017 km
right ascension of ascending node: 122.1007°
argument of perigee: 27.9426°
revolutions per day: 13.72692291
mean anomaly at epoch: 40.4977°
orbit number at epoch: 75932

The dashed part of the orbit path shows where the satellite is in the earth's shadow,  

DLR